AMC-14                  
1 32708U 08011A   19259.61299378  .00000090  00000-0  00000-0 0  9990
2 32708  20.5238  51.1182 0037319   7.5085 175.3292  1.00274842 43439
BREEZE-M R/B            
1 32709U 08011B   19252.03180675  .00000023  00000-0  27394-2 0  9992
2 32709  49.2882 120.7201 6449428 212.2177 348.2685  3.07821173128951
BREEZE-M DEB            
1 37198U 08011C   19258.42004033 -.00000137  00000-0 -18196-3 0  9990
2 37198  49.1946  33.0332 6551262 290.6080  13.6037  3.11502574101324
BREEZE-M DEB            
1 37199U 08011D   19244.13992654  .00001040  00000-0  51396-1 0  9998
2 37199  49.0945 156.6533 6352463 183.2577 353.3170  3.06598316 99419
BREEZE-M DEB            
1 37200U 08011E   19258.40052833 -.00000044  00000-0  00000-0 0  9991
2 37200  48.8067 244.7864 6285809 115.5664  12.6341  3.02103580 98419
BREEZE-M DEB            
1 37201U 08011F   19258.12364752  .00000430  00000-0  26540-1 0  9993
2 37201  49.0599 162.6261 6342230 179.1626 354.1784  3.06031256 99676
BREEZE-M DEB            
1 37202U 08011G   19257.88033846  .00000195  00000-0  10255-1 0  9997
2 37202  49.1263 138.3014 6368101 198.6223 119.0804  3.07125802 82671
BREEZE-M DEB            
1 37203U 08011H   19258.40574660  .00000279  00000-0  92764-2 0  9990
2 37203  48.4585  60.7952 6294697 304.7009  12.9902  3.20585033103260
BREEZE-M DEB            
1 37204U 08011J   19258.13604299  .00000403  00000-0  21616-1 0  9999
2 37204  49.1076 151.6981 6355005 187.0006 354.0079  3.06515535 99786
BREEZE-M DEB            
1 37205U 08011K   19246.16041517  .00001117  00000-0  60785-1 0  9991
2 37205  49.0906 167.3239 6345640 173.4609 354.1820  3.05954009 99305
BREEZE-M DEB            
1 38565U 08011L   19256.17465863 -.00000350  00000-0 -24141-2 0  9994
2 38565  49.1596  70.7482 6489800 256.7239  28.2181  3.10158176107484
BREEZE-M DEB            
1 38566U 08011M   19258.10345076  .00000850  00000-0  51540-2 0  9999
2 38566  48.1091 167.4918 5507751 150.7924 256.5106  4.44726294112985
BREEZE-M DEB            
1 38567U 08011N   19258.15290469 -.00000079  00000-0  00000+0 0  9996
2 38567  49.3663 314.7526 6302919  33.3260   8.9634  2.94635763 91923
BREEZE-M DEB            
1 38569U 08011Q   19258.85515715 -.00000524  00000-0 -29264-1 0  9990
2 38569  48.9821 238.2280 6363864 110.1740 325.8237  3.01823124 93680
BREEZE-M DEB            
1 38572U 08011T   19256.25922084 -.00000133  00000-0  00000+0 0  9997
2 38572  48.7704 196.4678 6324719 164.9820 229.8955  3.03136991 96516
BREEZE-M DEB            
1 38573U 08011U   19259.11049292 -.00000035  00000-0  00000+0 0  9998
2 38573  48.9142 232.1318 6315130 120.6944 353.4725  3.02018835 93327
BREEZE-M DEB            
1 38574U 08011V   19256.32657086 -.00000059  00000-0  00000+0 0  9991
2 38574  48.7929 252.2418 6284489 109.9170 325.0405  3.01777317 88539
BREEZE-M DEB            
1 38576U 08011X   19257.52865731  .00000182  00000-0  85992-3 0  9997
2 38576  49.3049   9.0293 6457371 306.0206  10.1419  3.21916882101438
BREEZE-M DEB            
1 38577U 08011Y   19257.27275390 -.00002069  00000-0 -34750-1 0  9998
2 38577  49.1668 132.1571 6511675 201.5005 341.2312  2.99571403 95190
BREEZE-M DEB            
1 38578U 08011Z   19252.90298356 -.00000287  00000-0 -74712-2 0  9994
2 38578  47.3339 130.5212 6461970 278.9701  17.9116  3.01245090 91024
BREEZE-M DEB            
1 38579U 08011AA  19258.20089309  .00001679  00000-0  87374-1 0  9991
2 38579  48.8743 168.5226 6407083 180.9875 356.2295  2.99228131 91520
BREEZE-M DEB            
1 38580U 08011AB  19259.08784931 -.00000077  00000-0  00000+0 0  9994
2 38580  48.5538 232.8185 6383104 147.7751 275.9192  2.92852610 90329
BREEZE-M DEB            
1 38581U 08011AC  19258.84738446  .00002513  00000-0  39301-2 0  9993
2 38581  48.9984 147.3688 6037848 131.3265 299.1173  3.84680716 97329
BREEZE-M DEB            
1 38583U 08011AE  19256.40397014 -.00000057  00000-0 -39971-4 0  9995
2 38583  49.3168  43.8326 6510760 272.0122  20.3122  3.12700395 96136
BREEZE-M DEB            
1 38585U 08011AG  19256.39749912 -.00000007  00000-0  16223-3 0  9991
2 38585  49.3741 335.8666 6473399 332.2554   4.8064  3.23820821 98346
BREEZE-M DEB            
1 38588U 08011AK  19257.53525443  .00006362  00000-0  21298+0 0  9995
2 38588  49.9681 217.8933 6426661  75.9746 343.6848  3.01920654 90390
BREEZE-M DEB            
1 38589U 08011AL  19258.28715391 -.00000083  00000-0  00000+0 0  9995
2 38589  48.3334 235.1551 6316674 142.6900 285.0766  2.95216636 90493
BREEZE-M DEB            
1 38590U 08011AM  19256.34047450 -.00000625  00000-0 -53042-1 0  9995
2 38590  48.8641 309.2221 6416852  49.2659 350.8882  2.87833811 87790
BREEZE-M DEB            
1 38592U 08011AP  19255.48242072 -.00000645  00000-0 -49108-2 0  9999
2 38592  48.7868  71.1226 6459125 280.9443  18.7212  3.13283065 93612
BREEZE-M DEB            
1 38594U 08011AR  19243.25061947  .00000512  00000-0  14742-1 0  9999
2 38594  49.1139 168.2783 6499882 169.6739 349.1826  2.97114384 92665
BREEZE-M DEB            
1 38597U 08011AU  19257.49346849  .00001878  00000-0  12863-1 0  9998
2 38597  49.6009 349.9247 6268747 313.6631   9.1699  3.40258414102146
BREEZE-M DEB            
1 38599U 08011AW  19259.37332191  .00000333  00000-0  31405-2 0  9993
2 38599  48.9464 242.5062 6691009 128.3345 313.0724  2.85277421 88597
BREEZE-M DEB            
1 38600U 08011AX  19256.51179541 -.00000024  00000-0  24485-3 0  9996
2 38600  49.1069  39.2638 6528156 289.5088  14.0317  3.12798712 97330
BREEZE-M DEB            
1 38601U 08011AY  19257.24374890  .00015343  00000-0  12567-2 0  9998
2 38601  48.1381 343.4055 5817565   4.7165 359.0049  4.36052818120425
BREEZE-M DEB            
1 38602U 08011AZ  19259.49179611  .00000317  00000-0  75850-3 0  9992
2 38602  49.0150   9.1941 6520642 329.4374   5.1287  3.18330552102647
BREEZE-M DEB            
1 38603U 08011BA  19256.26820681  .00000166  00000-0  18640-2 0  9990
2 38603  49.8620  59.3973 6429064 226.0292  58.8163  3.15935021 97883
BREEZE-M DEB            
1 38604U 08011BB  19253.96668655  .00000038  00000-0  14156-2 0  9992
2 38604  49.2288  89.1966 6457813 237.2992  44.2618  3.09025994 98411
BREEZE-M DEB            
1 38606U 08011BD  19258.47045084 -.00000450  00000-0 -38489-3 0  9996
2 38606  48.6851  52.6828 6613973 304.6876   9.6382  3.07175369 97978
BREEZE-M DEB            
1 38607U 08011BE  19258.12786135  .00000673  00000-0  23680-1 0  9998
2 38607  49.4596 170.0331 6388724 140.7283  28.0769  3.05923729 96424
BREEZE-M DEB            
1 38608U 08011BF  19258.43653216  .00006502  00000-0  43112-2 0  9996
2 38608  48.4408 300.0295 4736810 352.5858   2.4094  5.91229630135846
BREEZE-M DEB            
1 38609U 08011BG  19256.60447746  .00000690  00000-0  24291-2 0  9992
2 38609  48.5484  16.3956 6446233 347.6073   1.9919  3.25509414100147
BREEZE-M DEB            
1 38610U 08011BH  19254.14179277  .00000395  00000-0  28562-1 0  9998
2 38610  49.0772 166.7076 6340116 173.7670 354.4812  3.05971078 96332
BREEZE-M DEB            
1 38612U 08011BK  19259.05134278 -.00002291  00000-0 -89364-1 0  9993
2 38612  47.8923 175.1511 6415309 226.5380  15.5967  3.01284519 94885
BREEZE-M DEB            
1 38617U 08011BQ  19257.62368774  .00000267  00000-0  22893-2 0  9993
2 38617  49.3748   7.0661 6396003 300.2279  11.8765  3.23542405 95103
BREEZE-M DEB            
1 38619U 08011BS  19245.19173503  .00001333  00000-0  76588-1 0  9992
2 38619  49.0611 174.3062 6337624 168.0090 355.4421  3.05797328 90566
BREEZE-M DEB            
1 38622U 08011BV  19255.45866894 -.00000077  00000-0 -22439-3 0  9992
2 38622  49.2177  72.8905 6496236 252.5006  88.8479  3.09377658 89470
BREEZE-M DEB            
1 38624U 08011BX  19258.63530451 -.00000006  00000-0  25961-3 0  9998
2 38624  48.8622  43.7157 6533909 303.9124  10.2021  3.13547232 89709
BREEZE-M DEB            
1 38625U 08011BY  19257.51342707  .00000133  00000-0  70668-3 0  9994
2 38625  49.2030 356.2842 6450474 326.4359   5.8913  3.23852989823824
BREEZE-M DEB            
1 38629U 08011CC  19259.38956389  .00005479  00000-0  71271-1 0  9999
2 38629  51.3758 159.7503 5687795  25.9369 261.8601  4.08384431 40597
BREEZE-M DEB            
1 38631U 08011CE  19257.03661378  .00001425  00000-0  30410-1 0  9990
2 38631  49.3657  82.4094 6353207 235.0540  74.1274  3.16791666 96521
BREEZE-M DEB            
1 38636U 08011CK  19256.41799964 -.00000146  00000-0 -81061-3 0  9990
2 38636  49.3155  67.1155 6492323 250.4735  32.3432  3.10473726 95111
BREEZE-M DEB            
1 38640U 08011CP  19258.64585797 -.00001482  00000-0 -42075-1 0  9993
2 38640  48.8037 151.6459 6440280 203.7632  34.5406  3.01770269 93022
BREEZE-M DEB            
1 38643U 08011CS  19252.96759226  .00003391  00000-0  89157-1 0  9996
2 38643  49.4344 106.2515 6343293 195.6859 350.2799  3.15266390 95753
BREEZE-M DEB            
1 38645U 08011CU  19258.08680104  .00000212  00000-0  13182-1 0  9999
2 38645  48.9457 149.4219 6355105 193.1395 351.3597  3.06529023 98483
BREEZE-M DEB            
1 38646U 08011CV  19258.14430090  .00001398  00000-0  75229-1 0  9990
2 38646  49.0875 162.5518 6345031 177.5221 358.2788  3.05942226 99649
BREEZE-M DEB            
1 38647U 08011CW  19259.14726699  .00000329  00000-0  26063-1 0  9990
2 38647  49.0218 184.4992 6318481 159.5104 357.4643  3.05307228 99467
BREEZE-M DEB            
1 38648U 08011CX  19258.46255501  .00001163  00000-0  17532-1 0  9992
2 38648  49.1382 111.2777 6498952 221.6235  64.6472  3.03148368 99089
BREEZE-M DEB            
1 38650U 08011CZ  19255.09125588  .00000837  00000-0  43616-1 0  9991
2 38650  49.0653 152.4322 6352911 187.5994 351.7053  3.06639447 99509
BREEZE-M DEB            
1 38651U 08011DA  19254.04708646 -.00000922  00000-0 -38136-1 0  9996
2 38651  49.0635 161.3816 6347658 179.7907 351.8233  3.06045297 99264
BREEZE-M DEB            
1 39325U 08011DC  19258.34090248  .00001860  00000-0  44571-1 0  9994
2 39325  49.1587 214.7116 6449355 101.1224 332.7913  3.03256960 90918
BREEZE-M DEB            
1 39327U 08011DE  19253.12243969 -.00000480  00000-0 -81831-2 0  9997
2 39327  49.2848 203.8099 6546434 114.0554 357.3045  2.94953563 81769
BREEZE-M DEB            
1 39328U 08011DF  19248.37915068 -.00000430  00000-0 -21623-1 0  9992
2 39328  48.8583 223.5677 6424829 132.4859 303.5055  2.95922121 83063
BREEZE-M DEB            
1 39330U 08011DH  19258.32472067 -.00000839  00000-0 -17378-1 0  9993
2 39330  49.5072 187.2878 6490596 111.6145   5.5208  3.00858566 65334
BREEZE-M DEB            
1 39599U 08011DK  19255.89349335  .00000011  00000-0  23566-2 0  9997
2 39599  49.3936 135.3017 6269443 174.7931 197.6960  3.14577623 66836
BREEZE-M DEB            
1 39988U 08011DM  19257.07162995 -.00000084  00000-0  00000+0 0  9992
2 39988  48.8119 199.3836 5575816 192.7879 143.5346  2.86746842 85713
BREEZE-M DEB            
1 39993U 08011DS  19259.03832326  .00000105  00000-0  25263-2 0  9992
2 39993  51.0773 172.9381 6319248  59.1513 348.0277  3.17699003 90127
BREEZE-M DEB            
1 39995U 08011DU  19258.07996752  .00000044  00000-0  26918-2 0  9991
2 39995  49.3942 121.0371 6381858 197.2814 353.4876  3.08523804 83969